Regional Weather Roundup
Issued by NWS

Home | Current Version | Previous Version | Text Only | Print | Product List | Glossary Off
Versions: 1 2 3 4 5 6 7 8 9 10 11 12 13 14 15 16 17 18 19 20 21 22 23 24 25 26 27 28 29 30 31 32 33 34 35 36 37 38 39 40 41 42 43 44 45 46 47 48 49 50

000
ASUS45 KCYS 240310
RWRWY

WYOMING REGIONAL WEATHER ROUNDUP
NATIONAL WEATHER SERVICE CHEYENNE WY
900 PM MDT TUE SEP 23 2014

NOTE:  "FAIR" INDICATES FEW OR NO CLOUDS BELOW 12,000 FEET
WITH NO SIGNIFICANT WEATHER AND/OR OBSTRUCTIONS TO VISIBILITY.

WYZ001-240400-
YELLOWSTONE NATIONAL PARK

CITY           SKY/WX    TMP DP  RH WIND       PRES   REMARKS
LK YELLOWSTONE   N/A     46  43  89 NW3       30.35R
W YELLOWSTONE  NOT AVBL

$$
WYZ002>013-054>058-071-098>099-240400-
NORTHERN WYOMING

CITY           SKY/WX    TMP DP  RH WIND       PRES   REMARKS
JACKSON        CLEAR     57  48  72 CALM      30.25R
CODY           CLEAR     64  43  45 S7        30.12R
GREYBULL       CLEAR     69  45  41 CALM      30.04R
WORLAND        CLEAR     63  42  46 S8        30.06R
SHERIDAN       CLEAR     59  48  67 S5        30.06R
BUFFALO        CLEAR     62  44  51 W7        30.13R
GILLETTE       CLEAR     55  43  63 S6        30.07R
HULETT         FAIR      63  48  59 MISG      30.07
NEWCASTLE      FAIR      61  43  51 N7        30.06

$$
WYZ014>020-022>026-101>103-240400-
CENTRAL WYOMING

CITY           SKY/WX    TMP DP  RH WIND       PRES   REMARKS
BIG PINEY      CLEAR     51  43  74 NW9       30.30R
PINEDALE       CLEAR     52  41  66 W12       30.30R
DUBOIS         FAIR      55  37  50 MISG      30.28R
LANDER         CLEAR     65  36  34 SW6       30.15R
RIVERTON       CLEAR     68  34  28 E6        30.16R
CASPER         CLEAR     54  39  57 W7        30.16R
DOUGLAS        PTCLDY    59  40  49 W6        30.14R

$$
WYZ021-027>030-104>119-240400-
SOUTHERN WYOMING

CITY           SKY/WX    TMP DP  RH WIND       PRES   REMARKS
EVANSTON       PTCLDY    61  40  45 W8        30.31R
KEMMERER       PTCLDY    55  43  62 NW9       30.33R
FORT BRIDGER   FAIR      61  42  50 W5        30.33R
ROCK SPRINGS   CLEAR     61  40  45 W9        30.28R
DIXON          FAIR      54  48  81 E3        30.30R
RAWLINS        PTCLDY    60  39  45 N5        30.27R
SARATOGA       FAIR      57  43  58 SW10      30.30R
LARAMIE        PTCLDY    54  41  61 W8        30.29R
CHEYENNE       CLEAR     59  40  49 W9        30.21R
TORRINGTON     CLEAR     66  47  50 W3        30.06R
PINE BLUFFS    FAIR      55  46  71 CALM      30.16R

$$


USA.gov is the U.S. government's official web portal to all federal, state and local government web resources and services.